Time,TemperatureF,DewpointF,PressureIn,WindDirection,WindDirectionDegrees,WindSpeedMPH,WindSpeedGustMPH,Humidity,HourlyPrecipIn,Conditions,Clouds,dailyrainin,SoftwareType,DateUTC
2018-05-23 00:02:00,52.9,51.8,30.03,NNW,329,0.0,0.0,96,0.00,RA,,0.00,WeatherDisplay:10.37,2018-05-23 04:02:00,
2018-05-23 00:07:00,52.9,51.8,30.03,NNW,329,0.0,0.0,96,0.00,RA,,0.00,WeatherDisplay:10.37,2018-05-23 04:07:00,
2018-05-23 00:12:00,52.9,51.8,30.03,NNW,329,0.0,0.0,96,0.00,CLR,,0.00,WeatherDisplay:10.37,2018-05-23 04:12:00,
2018-05-23 00:17:00,52.9,51.8,30.03,NNW,329,0.0,0.0,96,0.00,CLR,,0.00,WeatherDisplay:10.37,2018-05-23 04:17:00,
2018-05-23 00:22:00,52.9,51.8,30.02,NNW,329,0.0,0.0,96,0.00,CLR,,0.00,WeatherDisplay:10.37,2018-05-23 04:22:00,
2018-05-23 00:27:00,53.0,51.9,30.02,NNW,329,0.0,0.0,96,0.00,CLR,,0.00,WeatherDisplay:10.37,2018-05-23 04:27:00,
2018-05-23 00:32:00,52.9,51.8,30.02,NNW,329,0.0,0.0,96,0.00,CLR,,0.00,WeatherDisplay:10.37,2018-05-23 04:32:00,
2018-05-23 00:37:00,52.9,51.8,30.01,NNW,329,0.0,0.0,96,0.00,CLR,,0.00,WeatherDisplay:10.37,2018-05-23 04:37:00,
2018-05-23 00:42:00,53.0,51.9,30.01,NNW,329,0.0,0.0,96,0.00,CLR,,0.00,WeatherDisplay:10.37,2018-05-23 04:42:00,
2018-05-23 00:47:00,53.0,51.9,30.01,NNW,329,0.0,0.0,96,0.00,CLR,,0.00,WeatherDisplay:10.37,2018-05-23 04:47:00,
2018-05-23 00:52:00,53.0,51.9,30.00,NNW,329,0.0,0.0,96,0.00,CLR,,0.00,WeatherDisplay:10.37,2018-05-23 04:52:00,
2018-05-23 00:57:00,53.0,51.9,30.00,NNW,329,0.0,0.0,96,0.00,CLR,,0.00,WeatherDisplay:10.37,2018-05-23 04:57:00,
2018-05-23 01:02:00,53.0,51.9,30.00,NNW,329,0.0,0.0,96,0.00,CLR,,0.00,WeatherDisplay:10.37,2018-05-23 05:02:00,
2018-05-23 01:07:00,53.0,51.9,29.99,NNW,329,0.0,0.0,96,0.00,CLR,,0.00,WeatherDisplay:10.37,2018-05-23 05:07:00,
2018-05-23 01:12:00,53.0,51.9,29.99,NNW,329,0.0,0.0,96,0.00,CLR,,0.00,WeatherDisplay:10.37,2018-05-23 05:12:00,
2018-05-23 01:17:00,53.1,52.0,29.99,NNW,329,0.0,0.0,96,0.00,CLR,,0.00,WeatherDisplay:10.37,2018-05-23 05:17:00,
2018-05-23 01:22:00,53.1,52.0,29.99,NNW,329,0.0,0.0,96,0.00,CLR,,0.00,WeatherDisplay:10.37,2018-05-23 05:22:00,
2018-05-23 01:27:00,53.1,52.0,29.99,NNW,329,0.0,0.0,96,0.00,CLR,,0.00,WeatherDisplay:10.37,2018-05-23 05:27:00,
2018-05-23 01:32:00,53.1,52.0,29.99,NNW,329,0.0,0.0,96,0.00,CLR,,0.00,WeatherDisplay:10.37,2018-05-23 05:32:00,
2018-05-23 01:37:00,53.1,52.0,29.99,NNW,329,0.0,0.0,96,0.00,CLR,,0.00,WeatherDisplay:10.37,2018-05-23 05:37:00,
2018-05-23 01:42:00,53.0,51.9,29.99,NNW,329,0.0,0.0,96,0.00,CLR,,0.00,WeatherDisplay:10.37,2018-05-23 05:42:00,
2018-05-23 01:47:00,53.0,51.9,29.99,NNW,329,0.0,0.0,96,0.00,CLR,,0.00,WeatherDisplay:10.37,2018-05-23 05:47:00,
2018-05-23 01:52:00,53.1,52.3,29.99,NNW,329,0.0,0.0,97,0.00,CLR,,0.00,WeatherDisplay:10.37,2018-05-23 05:52:00,
2018-05-23 01:57:00,53.1,52.3,29.99,NNW,329,0.0,0.0,97,0.00,CLR,,0.00,WeatherDisplay:10.37,2018-05-23 05:57:00,
2018-05-23 02:02:00,53.2,52.4,29.98,NNW,329,0.0,0.0,97,0.00,CLR,,0.00,WeatherDisplay:10.37,2018-05-23 06:02:00,
2018-05-23 02:07:00,53.2,52.4,29.97,NNW,329,0.0,0.0,97,0.00,CLR,,0.00,WeatherDisplay:10.37,2018-05-23 06:07:00,
2018-05-23 02:12:00,53.2,52.4,29.97,NNW,329,0.0,0.0,97,0.00,CLR,,0.00,WeatherDisplay:10.37,2018-05-23 06:12:00,
2018-05-23 02:17:00,53.2,52.4,29.97,NNW,329,0.0,0.0,97,0.00,CLR,,0.00,WeatherDisplay:10.37,2018-05-23 06:17:00,
2018-05-23 02:22:00,53.2,52.4,29.97,NNW,329,0.0,0.0,97,0.00,CLR,,0.00,WeatherDisplay:10.37,2018-05-23 06:22:00,
2018-05-23 02:27:00,53.2,52.4,29.97,NNW,329,0.0,0.0,97,0.00,CLR,,0.00,WeatherDisplay:10.37,2018-05-23 06:27:00,
2018-05-23 02:32:00,53.2,52.4,29.97,NNW,329,0.0,0.0,97,0.00,CLR,,0.00,WeatherDisplay:10.37,2018-05-23 06:32:00,
2018-05-23 02:37:00,53.3,52.5,29.96,NNW,329,0.0,0.0,97,0.00,CLR,,0.00,WeatherDisplay:10.37,2018-05-23 06:37:00,
2018-05-23 02:42:00,53.4,52.6,29.97,NNW,329,0.0,0.0,97,0.00,CLR,,0.00,WeatherDisplay:10.37,2018-05-23 06:42:00,
2018-05-23 02:47:00,53.3,52.5,29.96,NNW,329,0.0,0.0,97,0.00,CLR,,0.00,WeatherDisplay:10.37,2018-05-23 06:47:00,
2018-05-23 02:52:00,53.3,52.5,29.97,NNW,329,0.0,0.0,97,0.00,CLR,,0.00,WeatherDisplay:10.37,2018-05-23 06:52:00,
2018-05-23 02:57:00,53.3,52.5,29.97,NNW,329,0.0,0.0,97,0.00,CLR,,0.00,WeatherDisplay:10.37,2018-05-23 06:57:00,
2018-05-23 03:02:00,53.4,52.6,29.97,NNW,329,0.0,0.0,97,0.00,CLR,,0.00,WeatherDisplay:10.37,2018-05-23 07:02:00,
2018-05-23 03:07:00,53.4,52.6,29.97,NNW,329,0.0,0.0,97,0.00,CLR,,0.00,WeatherDisplay:10.37,2018-05-23 07:07:00,
2018-05-23 03:12:00,53.4,52.6,29.97,NNW,329,0.0,0.0,97,0.00,CLR,,0.00,WeatherDisplay:10.37,2018-05-23 07:12:00,
2018-05-23 03:17:00,53.4,52.6,29.97,NNW,329,0.0,0.0,97,0.00,CLR,,0.00,WeatherDisplay:10.37,2018-05-23 07:17:00,
2018-05-23 03:22:00,53.5,52.7,29.96,NNW,329,0.0,0.0,97,0.00,CLR,,0.00,WeatherDisplay:10.37,2018-05-23 07:22:00,
2018-05-23 03:27:00,53.6,52.8,29.96,NNW,329,0.0,0.0,97,0.00,CLR,,0.00,WeatherDisplay:10.37,2018-05-23 07:27:00,
2018-05-23 03:32:00,53.6,52.8,29.96,NNW,329,0.0,0.0,97,0.00,CLR,,0.00,WeatherDisplay:10.37,2018-05-23 07:32:00,
2018-05-23 03:37:00,53.7,52.9,29.96,NNW,329,0.0,0.0,97,0.01,RA,,0.01,WeatherDisplay:10.37,2018-05-23 07:37:00,
2018-05-23 03:42:00,53.8,53.0,29.97,NNW,329,0.0,0.0,97,0.01,RA,,0.01,WeatherDisplay:10.37,2018-05-23 07:42:00,
2018-05-23 03:47:00,54.0,53.2,29.97,SW,236,0.0,0.0,97,0.01,CLR,,0.01,WeatherDisplay:10.37,2018-05-23 07:47:00,
2018-05-23 03:52:00,54.2,53.4,29.97,SW,236,0.0,0.0,97,0.01,CLR,,0.01,WeatherDisplay:10.37,2018-05-23 07:52:00,
2018-05-23 03:57:00,54.3,53.5,29.97,SW,234,0.0,0.0,97,0.01,CLR,,0.01,WeatherDisplay:10.37,2018-05-23 07:57:00,
2018-05-23 04:02:00,54.4,53.6,29.97,SW,236,0.0,0.0,97,0.01,CLR,,0.01,WeatherDisplay:10.37,2018-05-23 08:02:00,
2018-05-23 04:07:00,54.4,53.6,29.97,SW,236,0.0,0.0,97,0.01,CLR,,0.01,WeatherDisplay:10.37,2018-05-23 08:07:00,
2018-05-23 04:12:00,54.5,53.7,29.96,SW,236,0.0,0.0,97,0.01,CLR,,0.01,WeatherDisplay:10.37,2018-05-23 08:12:00,
2018-05-23 04:17:00,54.5,53.7,29.96,SW,236,0.0,0.0,97,0.01,CLR,,0.01,WeatherDisplay:10.37,2018-05-23 08:17:00,
2018-05-23 04:22:00,54.5,53.7,29.96,SW,236,0.0,0.0,97,0.01,CLR,,0.01,WeatherDisplay:10.37,2018-05-23 08:22:00,
2018-05-23 04:27:00,54.6,53.8,29.96,SW,236,0.0,0.0,97,0.01,CLR,,0.01,WeatherDisplay:10.37,2018-05-23 08:27:00,
2018-05-23 04:32:00,54.6,53.8,29.96,SW,236,0.0,0.0,97,0.01,CLR,,0.01,WeatherDisplay:10.37,2018-05-23 08:32:00,
2018-05-23 04:37:00,54.6,53.8,29.96,SW,236,0.0,0.0,97,0.00,CLR,,0.01,WeatherDisplay:10.37,2018-05-23 08:37:00,
2018-05-23 04:42:00,54.7,53.9,29.96,SW,236,0.0,0.0,97,0.00,CLR,,0.01,WeatherDisplay:10.37,2018-05-23 08:42:00,
2018-05-23 04:47:00,54.7,53.9,29.96,SW,235,0.0,0.0,97,0.00,CLR,,0.01,WeatherDisplay:10.37,2018-05-23 08:47:00,
2018-05-23 04:52:00,54.7,53.9,29.96,SW,236,0.0,0.0,97,0.00,CLR,,0.01,WeatherDisplay:10.37,2018-05-23 08:52:00,
2018-05-23 04:57:00,54.7,53.9,29.96,SW,236,0.0,0.0,97,0.00,CLR,,0.01,WeatherDisplay:10.37,2018-05-23 08:57:00,
2018-05-23 05:02:00,54.7,53.9,29.96,SW,235,0.0,0.0,97,0.00,CLR,,0.01,WeatherDisplay:10.37,2018-05-23 09:02:00,
2018-05-23 05:07:00,54.7,53.9,29.96,SW,235,0.0,0.0,97,0.00,CLR,,0.01,WeatherDisplay:10.37,2018-05-23 09:07:00,
2018-05-23 05:12:00,54.7,53.9,29.95,SW,236,0.0,0.0,97,0.00,CLR,,0.01,WeatherDisplay:10.37,2018-05-23 09:12:00,
2018-05-23 05:17:00,54.7,53.9,29.95,SW,236,0.0,0.0,97,0.00,CLR,,0.01,WeatherDisplay:10.37,2018-05-23 09:17:00,
2018-05-23 05:22:00,54.7,53.9,29.95,SW,236,0.0,0.0,97,0.00,CLR,,0.01,WeatherDisplay:10.37,2018-05-23 09:22:00,
2018-05-23 05:27:00,54.7,53.9,29.95,SW,235,0.0,0.0,97,0.00,CLR,,0.01,WeatherDisplay:10.37,2018-05-23 09:27:00,
2018-05-23 05:32:00,54.7,53.9,29.95,SW,236,0.0,0.0,97,0.00,CLR,,0.01,WeatherDisplay:10.37,2018-05-23 09:32:00,
2018-05-23 05:37:00,54.6,53.8,29.96,SW,236,0.0,0.0,97,0.00,CLR,,0.01,WeatherDisplay:10.37,2018-05-23 09:37:00,
2018-05-23 05:42:00,54.6,53.8,29.96,SW,236,0.0,0.0,97,0.00,CLR,,0.01,WeatherDisplay:10.37,2018-05-23 09:42:00,
2018-05-23 05:47:00,54.5,53.7,29.95,SW,235,0.0,0.0,97,0.00,CLR,,0.01,WeatherDisplay:10.37,2018-05-23 09:47:00,
2018-05-23 05:52:00,54.5,53.7,29.95,SW,235,0.0,0.0,97,0.00,CLR,,0.01,WeatherDisplay:10.37,2018-05-23 09:52:00,
2018-05-23 05:57:00,54.5,53.7,29.95,SW,236,0.0,0.0,97,0.00,CLR,,0.01,WeatherDisplay:10.37,2018-05-23 09:57:00,
2018-05-23 06:02:00,54.5,53.7,29.96,SW,236,0.0,0.0,97,0.00,CLR,,0.01,WeatherDisplay:10.37,2018-05-23 10:02:00,